FW2665 Weather Reports


time (UTC)temp
C
wind
direction
speed
KPH
gust
KPH
rain 1hr
cm
rain 24hr
cm
rain mn
cm
humidity
%
barometer
mb
20260906193004 26 115 8.0 16.1 0.00 0.00 0.00 68 1013.5
20260906192004 26 143 4.8 9.7 0.00 0.00 0.00 70 1013.4
20260906191505 26 250 1.6 11.3 0.00 0.00 0.00 71 1013.5
20260906191004 26 250 1.6 11.3 0.00 0.00 0.00 71 1013.6
20260906190504 26 226 8.0 12.9 0.00 0.00 0.00 72 1013.5
20260906185503 26 256 8.0 14.5 0.00 0.00 0.00 73 1013.2
20260906185004 25 248 8.0 14.5 0.00 0.00 0.00 75 1013.3
20260906184504 25 262 9.7 14.5 0.00 0.00 0.00 76 1013.3
20260906183504 25 269 11.3 19.3 0.00 0.00 0.00 76 1013.4
20260906183004 25 263 11.3 19.3 0.00 0.00 0.00 77 1013.4
20260906182504 25 257 11.3 16.1 0.00 0.00 0.00 79 1013.3
20260906182005 25 242 9.7 14.5 0.00 0.00 0.00 81 1013.2
20260906181503 25 250 9.7 16.1 0.00 0.00 0.00 84 1013.3
20260906181004 25 245 9.7 16.1 0.00 0.00 0.00 84 1013.4
20260906180504 25 251 9.7 19.3 0.00 0.00 0.00 85 1013.4
20260906175504 25 262 9.7 19.3 0.00 0.00 0.00 87 1013.5
20260906175004 25 262 9.7 24.1 0.00 0.00 0.00 87 1013.6
20260906174503 25 238 16.1 29.0 0.00 0.00 0.00 86 1013.9
20260906174005 25 241 17.7 29.0 0.00 0.00 0.00 86 1014.1
20260906173504 25 244 16.1 22.5 0.00 0.00 0.00 86 1014.3
20260906173004 26 249 16.1 22.5 0.00 0.00 0.00 87 1014.4
20260906172504 26 241 12.9 19.3 0.00 0.00 0.00 86 1014.5
20260906172005 26 228 11.3 16.1 0.00 0.00 0.00 86 1014.3
20260906171004 26 193 6.4 9.7 0.00 0.00 0.00 85 1013.9
20260906170005 26 190 8.0 11.3 0.00 0.00 0.00 84 1013.8
20260906165503 26 176 4.8 12.9 0.00 0.00 0.00 84 1013.7
20260906164504 26 233 11.3 12.9 0.00 0.00 0.00 83 1013.8
20260906164005 26 230 9.7 12.9 0.00 0.00 0.00 84 1013.8
20260906163503 26 216 9.7 16.1 0.00 0.00 0.00 86 1013.6
20260906163003 26 195 11.3 16.1 0.00 0.00 0.00 86 1013.6
20260906162504 26 220 11.3 14.5 0.00 0.00 0.00 86 1013.5
20260906161505 25 239 8.0 14.5 0.00 0.00 0.00 85 1013.2
20260906161004 25 262 9.7 14.5 0.00 0.00 0.00 85 1013.1
20260906160504 25 255 8.0 11.3 0.00 0.00 0.00 86 1013.2
20260906160004 25 264 8.0 11.3 0.00 0.00 0.00 88 1013.3
20260906155503 25 278 4.8 11.3 0.00 0.00 0.00 89 1013.3
20260906155005 25 208 8.0 11.3 0.00 0.00 0.00 91 1013.4
20260906154504 25 107 4.8 4.8 0.00 0.00 0.00 91 1013.4
20260906154003 25 107 1.6 3.2 0.00 0.00 0.00 91 1013.1
20260906153504 25 107 1.6 3.2 0.00 0.00 0.00 91 1013.1
20260906153004 25 107 1.6 3.2 0.00 0.00 0.00 91 1013.1
20260906152505 25 107 1.6 4.8 0.00 0.00 0.00 91 1013.0
20260906150507 25 107 0.0 11.3 0.00 0.00 0.00 91 1012.9
20260906150004 25 107 3.2 11.3 0.00 0.00 0.00 91 1012.7
20260906145503 25 121 6.4 11.3 0.00 0.00 0.00 91 1012.5
20260906144504 25 132 8.0 14.5 0.00 0.00 0.00 91 1012.7
20260906144003 25 128 9.7 16.1 0.00 0.00 0.00 91 1012.6
20260906143503 25 137 11.3 16.1 0.00 0.00 0.00 92 1012.6
20260906143006 25 130 8.0 16.1 0.00 0.00 0.00 92 1012.6
20260906142504 25 137 9.7 16.1 0.00 0.00 0.00 92 1012.7
20260906142003 25 132 8.0 14.5 0.00 0.00 0.00 92 1012.7
20260906141503 25 141 8.0 20.9 0.00 0.00 0.00 92 1012.7
20260906141005 25 131 12.9 20.9 0.00 0.00 0.00 92 1012.6
20260906140504 25 138 14.5 20.9 0.00 0.00 0.00 92 1012.4
20260906134004 25 138 14.5 24.1 0.00 0.00 0.00 93 1011.9
20260906133506 25 132 16.1 25.7 0.00 0.00 0.00 93 1012.0
20260906132504 25 135 17.7 24.1 0.00 0.00 0.00 93 1012.1
20260906132004 25 128 14.5 19.3 0.00 0.00 0.00 93 1012.0
20260906131505 24 133 14.5 19.3 0.00 0.00 0.00 93 1012.0
20260906131004 24 127 11.3 20.9 0.00 0.00 0.00 93 1011.8
20260906130503 24 135 14.5 20.9 0.00 0.00 0.00 93 1011.8
20260906130004 24 120 14.5 19.3 0.00 0.00 0.00 94 1011.5
20260906125505 24 116 14.5 20.9 0.00 0.00 0.00 94 1011.5
20260906125004 24 118 14.5 20.9 0.00 0.00 0.00 93 1011.4
20260906124504 24 116 12.9 20.9 0.00 0.00 0.00 93 1011.4
20260906124004 24 113 16.1 20.9 0.00 0.00 0.00 93 1011.3
20260906123505 24 111 11.3 19.3 0.00 0.00 0.00 93 1011.3
20260906123004 24 100 14.5 19.3 0.00 0.00 0.00 93 1011.1
20260906122504 24 108 12.9 19.3 0.00 0.00 0.00 93 1011.1
20260906122003 24 112 16.1 19.3 0.00 0.00 0.00 93 1011.0
20260906121506 24 112 14.5 19.3 0.00 0.00 0.00 93 1011.1
20260906120504 24 113 14.5 19.3 0.00 0.00 0.00 93 1011.2
20260906120004 24 114 12.9 19.3 0.00 0.00 0.00 93 1011.1
20260906115505 24 113 12.9 19.3 0.00 0.00 0.00 93 1010.9
20260906114004 24 120 11.3 19.3 0.00 0.05 0.00 93 1010.8
20260906113003 24 116 11.3 19.3 0.00 0.08 0.00 93 1010.7
20260906112506 24 122 11.3 19.3 0.00 0.10 0.00 93 1010.7
20260906112004 24 119 12.9 19.3 0.00 0.10 0.00 93 1010.6
20260906111503 24 122 11.3 19.3 0.00 0.13 0.00 93 1010.6
20260906110505 24 117 11.3 19.3 0.00 0.13 0.00 93 1010.6
20260906105504 25 125 11.3 19.3 0.00 0.13 0.00 92 1010.6
20260906105004 25 125 11.3 19.3 0.00 0.15 0.00 92 1010.6
20260906104504 25 124 11.3 19.3 0.00 0.18 0.00 92 1010.7
20260906104006 25 130 11.3 19.3 0.00 0.18 0.00 92 1010.8
20260906103504 25 123 11.3 19.3 0.00 0.20 0.00 92 1010.7
20260906103004 25 127 14.5 19.3 0.00 0.20 0.00 92 1010.7
20260906102005 25 136 14.5 20.9 0.00 0.23 0.00 92 1010.6
20260906101504 25 135 14.5 20.9 0.00 0.23 0.00 92 1010.6
20260906101004 25 139 14.5 25.7 0.00 0.23 0.00 92 1010.5
20260906100504 25 135 16.1 25.7 0.00 0.23 0.00 92 1010.4
20260906100005 25 136 16.1 24.1 0.00 0.23 0.00 92 1010.4
20260906095504 25 136 16.1 22.5 0.00 0.23 0.00 92 1010.4
20260906095004 25 133 14.5 22.5 0.00 0.23 0.00 92 1010.4
20260906094504 25 129 14.5 20.9 0.00 0.23 0.00 92 1010.4
20260906094006 25 128 14.5 20.9 0.00 0.23 0.00 92 1010.4
20260906093004 25 137 14.5 22.5 0.00 0.25 0.00 92 1010.5
20260906092503 25 136 14.5 22.5 0.00 0.25 0.00 92 1010.6
20260906092005 25 133 14.5 24.1 0.00 0.25 0.00 92 1010.7
20260906091503 25 136 16.1 24.1 0.00 0.25 0.00 92 1010.8
20260906091003 25 142 16.1 24.1 0.00 0.25 0.00 92 1010.8
20260906090503 25 141 14.5 24.1 0.00 0.25 0.00 92 1010.9
20260906090005 25 143 12.9 24.1 0.00 0.25 0.00 92 1010.9
20260906085504 25 143 16.1 24.1 0.00 0.28 0.00 92 1010.9
20260906085004 25 145 14.5 22.5 0.00 0.28 0.00 92 1011.0
20260906084503 25 147 14.5 22.5 0.00 0.28 0.00 92 1011.1
20260906084006 25 147 14.5 22.5 0.00 0.28 0.00 92 1011.0
20260906083504 25 155 14.5 22.5 0.00 0.28 0.00 92 1011.1
20260906083003 25 149 14.5 22.5 0.00 0.28 0.00 92 1011.1
20260906081503 25 150 12.9 20.9 0.00 0.33 0.00 92 1011.0
20260906081005 25 147 14.5 20.9 0.00 0.33 0.00 92 1010.9
20260906080504 25 139 14.5 24.1 0.00 0.36 0.00 92 1010.8
20260906080005 25 136 14.5 24.1 0.00 0.36 0.00 91 1010.7
20260906075004 25 134 16.1 25.7 0.00 0.36 0.00 91 1010.6
20260906074004 25 133 16.1 27.4 0.00 0.36 0.00 91 1010.7
20260906073504 25 140 19.3 27.4 0.00 0.36 0.00 91 1010.7
20260906073003 25 141 19.3 25.7 0.00 0.36 0.00 91 1010.8
20260906072504 25 142 19.3 25.7 0.00 0.36 0.00 91 1010.8
20260906072004 25 141 16.1 25.7 0.00 0.36 0.00 90 1010.8
20260906071504 25 140 19.3 25.7 0.00 0.36 0.00 90 1010.8
20260906070503 25 141 16.1 27.4 0.00 0.36 0.00 90 1011.1
20260906065003 25 136 16.1 25.7 0.00 0.36 0.00 89 1011.1
20260906064505 25 136 16.1 24.1 0.00 0.36 0.00 89 1011.2
20260906064004 25 132 16.1 24.1 0.00 0.36 0.00 89 1011.1
20260906063504 25 126 16.1 24.1 0.00 0.36 0.00 89 1011.0
20260906063006 24 130 12.9 19.3 0.00 0.36 0.00 89 1011.0
20260906062503 24 129 14.5 22.5 0.00 0.36 0.00 89 1011.1
20260906062004 24 126 12.9 22.5 0.00 0.36 0.00 89 1011.1
20260906061505 24 129 14.5 20.9 0.00 0.36 0.00 89 1011.0
20260906061003 24 129 14.5 19.3 0.00 0.36 0.00 88 1011.0
20260906060504 24 125 11.3 19.3 0.00 0.36 0.00 88 1011.2
20260906060005 24 117 11.3 19.3 0.00 0.36 0.00 88 1011.2
20260906055503 24 117 12.9 19.3 0.00 0.36 0.00 88 1011.1
20260906055004 24 114 12.9 19.3 0.00 0.36 0.00 88 1011.1
20260906054504 24 118 14.5 19.3 0.00 0.36 0.00 87 1011.1
20260906054004 24 121 14.5 19.3 0.00 0.36 0.00 87 1011.1
20260906053504 24 117 12.9 19.3 0.00 0.36 0.00 87 1011.2
20260906053004 24 118 14.5 19.3 0.00 0.36 0.00 87 1011.3
20260906052504 24 114 12.9 19.3 0.00 0.36 0.00 86 1011.3
20260906052004 24 114 14.5 19.3 0.00 0.36 0.00 86 1011.2
20260906051004 24 106 14.5 19.3 0.00 0.36 0.00 86 1011.3
20260906050504 24 108 14.5 19.3 0.00 0.36 0.00 85 1011.4
20260906050004 24 108 11.3 19.3 0.00 0.36 0.00 85 1011.6
20260906045004 24 114 14.5 19.3 0.00 0.36 0.36 84 1011.3
20260906044503 24 116 14.5 19.3 0.00 0.36 0.36 84 1011.3
20260906044004 24 118 12.9 19.3 0.00 0.36 0.36 84 1011.3
20260906043003 25 123 11.3 22.5 0.00 0.36 0.36 83 1011.3
20260906042504 25 125 11.3 24.1 0.00 0.36 0.36 82 1011.3
20260906042005 25 123 16.1 24.1 0.00 0.36 0.36 82 1011.3
20260906041504 25 130 14.5 24.1 0.00 0.36 0.36 82 1011.4
20260906041005 25 126 14.5 22.5 0.00 0.36 0.36 82 1011.4
20260906040504 25 125 14.5 22.5 0.00 0.36 0.36 81 1011.4
20260906040005 25 134 14.5 22.5 0.00 0.36 0.36 81 1011.4
20260906035504 25 132 16.1 22.5 0.00 0.36 0.36 81 1011.3
20260906035005 25 131 16.1 24.1 0.00 0.36 0.36 81 1011.4
20260906034503 25 131 17.7 24.1 0.00 0.36 0.36 81 1011.4
20260906034004 25 138 19.3 24.1 0.00 0.36 0.36 81 1011.4
20260906033503 25 137 16.1 24.1 0.00 0.36 0.36 81 1011.4
20260906033004 25 132 16.1 22.5 0.00 0.36 0.36 80 1011.4
20260906032004 25 127 16.1 20.9 0.00 0.36 0.36 79 1011.4
20260906031504 25 134 14.5 22.5 0.00 0.36 0.36 79 1011.4
20260906031003 25 128 14.5 22.5 0.00 0.36 0.36 78 1011.3
20260906025503 25 121 12.9 20.9 0.00 0.36 0.36 76 1011.2
20260906024004 26 123 14.5 19.3 0.00 0.36 0.36 75 1011.2
20260906023504 26 115 14.5 19.3 0.00 0.36 0.36 75 1011.0
20260906023004 26 118 14.5 20.9 0.00 0.36 0.36 74 1011.0
20260906022503 26 118 14.5 20.9 0.00 0.36 0.36 74 1011.0
20260906022004 26 126 14.5 20.9 0.00 0.36 0.36 74 1011.0
20260906021004 26 123 12.9 19.3 0.00 0.36 0.36 73 1010.9
20260906020504 26 127 11.3 19.3 0.00 0.36 0.36 72 1010.8
20260906020004 26 125 11.3 19.3 0.00 0.36 0.36 72 1010.9
20260906015505 26 125 11.3 22.5 0.00 0.36 0.36 71 1010.9
20260906015004 26 124 14.5 22.5 0.00 0.36 0.36 71 1010.8
20260906014504 26 120 14.5 20.9 0.00 0.36 0.36 70 1010.7
20260906014004 26 129 14.5 22.5 0.00 0.36 0.36 69 1010.6
20260906013503 27 126 16.1 22.5 0.00 0.36 0.36 69 1010.6
20260906013004 27 122 12.9 19.3 0.00 0.36 0.36 69 1010.6
20260906012504 27 117 14.5 19.3 0.00 0.36 0.36 68 1010.5
20260906012003 27 121 12.9 19.3 0.00 0.36 0.36 67 1010.4
20260906011004 27 123 12.9 19.3 0.00 0.36 0.36 66 1010.4
20260906010505 28 121 12.9 19.3 0.00 0.36 0.36 65 1010.5
20260906010004 28 122 11.3 19.3 0.00 0.36 0.36 64 1010.5
20260906005505 28 121 12.9 19.3 0.00 0.36 0.36 64 1010.3
20260906005004 28 123 11.3 20.9 0.00 0.36 0.36 64 1010.3
20260906004504 28 122 11.3 24.1 0.00 0.36 0.36 63 1010.2
20260906004004 28 128 16.1 24.1 0.00 0.36 0.36 62 1010.1
20260906003004 29 126 14.5 25.7 0.00 0.36 0.36 61 1010.1
20260906002003 29 126 14.5 25.7 0.00 0.36 0.36 61 1009.9
20260906001504 29 131 16.1 24.1 0.00 0.36 0.36 61 1009.9
20260906001005 30 124 14.5 25.7 0.00 0.36 0.36 61 1009.9
20260906000504 30 126 14.5 32.2 0.00 0.36 0.36 61 1009.7
20260906000004 30 136 19.3 32.2 0.00 0.36 0.36 60 1009.6
20260905235504 30 131 16.1 32.2 0.00 0.36 0.36 60 1009.6
20260905235004 31 130 17.7 29.0 0.00 0.36 0.36 58 1009.6
20260905234505 31 129 20.9 29.0 0.00 0.36 0.36 57 1009.5
20260905234003 31 120 16.1 27.4 0.00 0.36 0.36 57 1009.5
20260905233504 31 122 16.1 32.2 0.00 0.36 0.36 56 1009.6
20260905233004 31 125 16.1 32.2 0.00 0.36 0.36 57 1009.6
20260905232503 31 122 16.1 25.7 0.00 0.36 0.36 57 1009.5
20260905232006 32 131 17.7 25.7 0.00 0.36 0.36 58 1009.6
20260905231504 32 121 16.1 25.7 0.00 0.36 0.36 57 1009.6
20260905231005 32 112 14.5 25.7 0.00 0.36 0.36 56 1009.5
20260905230504 32 126 16.1 25.7 0.00 0.36 0.36 57 1009.5
20260905230004 32 113 14.5 25.7 0.00 0.36 0.36 56 1009.5
20260905225506 33 130 19.3 25.7 0.00 0.36 0.36 55 1009.5
20260905225004 33 121 16.1 22.5 0.00 0.36 0.36 55 1009.5
20260905224504 33 111 16.1 25.7 0.00 0.36 0.36 53 1009.4
20260905224003 33 125 19.3 25.7 0.00 0.36 0.36 52 1009.4
20260905223504 33 121 12.9 22.5 0.00 0.36 0.36 52 1009.4
20260905222004 34 146 11.3 20.9 0.00 0.36 0.36 50 1009.3
20260905221504 34 139 14.5 22.5 0.00 0.36 0.36 51 1009.2
20260905221004 34 136 16.1 22.5 0.00 0.36 0.36 51 1009.1
20260905220504 34 167 11.3 19.3 0.00 0.36 0.36 53 1009.1
20260905215504 34 184 14.5 19.3 0.00 0.36 0.36 51 1009.1
20260905214504 34 200 17.7 25.7 0.00 0.36 0.36 51 1009.1
20260905214005 34 198 19.3 25.7 0.00 0.36 0.36 51 1009.0
20260905213504 34 200 16.1 27.4 0.00 0.36 0.36 50 1009.1
20260905213004 34 160 19.3 27.4 0.00 0.36 0.36 48 1009.0
20260905212503 34 186 16.1 27.4 0.00 0.36 0.36 50 1009.1
20260905212004 34 208 14.5 25.7 0.00 0.36 0.36 48 1009.1
20260905210504 34 192 19.3 32.2 0.00 0.36 0.36 46 1009.1
20260905210004 34 220 19.3 32.2 0.00 0.36 0.36 48 1009.1
20260905205504 34 214 20.9 32.2 0.00 0.36 0.36 46 1009.1
20260905205006 34 183 20.9 27.4 0.00 0.36 0.36 46 1009.1
20260905204504 34 221 17.7 24.1 0.00 0.36 0.36 48 1009.1
20260905204004 33 180 11.3 19.3 0.00 0.36 0.36 49 1009.0
20260905203504 33 172 9.7 19.3 0.00 0.36 0.36 48 1008.9
20260905203004 33 128 8.0 19.3 0.00 0.36 0.36 47 1008.8
20260905202004 33 138 8.0 20.9 0.00 0.36 0.36 49 1009.0
20260905200504 33 105 6.4 19.3 0.00 0.36 0.36 51 1008.9
20260905200005 33 101 12.9 19.3 0.00 0.36 0.36 52 1008.9
20260905195504 33 107 4.8 19.3 0.00 0.36 0.36 53 1009.0
20260905194503 32 153 6.4 19.3 0.00 0.36 0.36 55 1009.0
20260905194005 32 165 9.7 19.3 0.00 0.36 0.36 56 1009.0
20260905193503 32 179 11.3 20.9 0.00 0.36 0.36 54 1009.1